(2010 GD35) |
Classification: Aten [NEO] SPK-ID: 3515692 |
[ hide orbit diagram ]
For accurate long-term ephemerides, please instead use our Horizons system.This orbit viewer was implemented using two-body methods, and hence should not be used for determining accurate long-term trajectories (over several years or decades) or planetary encounter circumstances.
Orbital Elements at Epoch 2459000.5 (2020-May-31.0) TDB
Reference: JPL 19 (heliocentric ecliptic J2000)
Element | Value | Uncertainty (1-sigma) | Units |
e | .4816375881246107 | 1.5448e-06 | |
a | .7640701558499076 | 7.986e-09 | au |
q | .3960652488283627 | 1.1819e-06 | au |
i | 7.785087205730937 | 5.5783e-05 | deg |
node | 25.12927220471758 | 2.9758e-05 | deg |
peri | 13.79771300807585 | 5.3069e-05 | deg |
M | 202.1736340090424 | 0.00028711 | deg |
tp | 2459107.448657665375 (2020-Sep-14.94865767) | 0.00019392 | TDB |
period | 243.9485729636632 0.67 | 3.8246e-06 1.047e-08 | d yr |
n | 1.475720868650553 | 2.3136e-08 | deg/d |
Q | 1.132075062871452 | 1.1832e-08 | au |
|
Additional Model Parameters
Parameter | Value | Uncertainty (1-sigma) |
A2 [EST] | 1.867295566370109E-13 | 2.544E-14 |
ALN [SET] | 1. | n/a |
NK [SET] | 0. | n/a |
NM [SET] | 2. | n/a |
R0 [SET] | 1. | n/a |
|
| | Orbit Determination Parameters
Additional Information
|
[ show covariance matrix ]
Physical Parameter Table
Parameter |
Symbol |
Value |
Units |
Sigma |
Reference |
Notes |
absolute magnitude |
H |
24.6 |
|
n/a |
MPO446909 |
|
|
[ show close-approach data ]
|